Regional Weather Roundup
Issued by NWS

Home | Current Version | Previous Version | Graphics & Text | Print | Product List | Glossary On
Versions: 1 2 3 4 5 6 7 8 9 10 11 12 13 14 15 16 17 18 19 20 21 22 23 24 25 26 27 28 29 30 31 32 33 34 35 36 37 38 39 40 41 42 43 44 45 46 47 48 49 50
000
ASUS43 KOAX 181602
RWRNE

WEATHER ROUNDUP FOR NEBRASKA
NATIONAL WEATHER SERVICE OMAHA NE
1100 AM CDT FRI APR 18 2014

NOTES: SATELLITE DATA IS BEING USED TO AUGMENT CLOUD COVER ABOVE
       12000 FEET.
       "FAIR" INDICATES FEW OR NO CLOUDS BELOW 12,000 FEET WITH NO
       SIGNIFICANT WEATHER AND/OR OBSTRUCTIONS TO VISIBILITY.

  * THESE STATIONS DO NOT REPORT WEATHER SUCH AS RAIN...SNOW OR FOG.

NEZ001>004-019>022-054>056-181700-
NEBRASKA PANHANDLE

CITY           SKY/WX    TMP DP  RH WIND       PRES   REMARKS
SCOTTSBLUFF    PTSUNNY   61  40  45 SE7       29.91F
ALLIANCE       PTSUNNY   59  40  49 S13       29.91F
CHADRON        PTSUNNY   61  42  49 CALM      29.83F
KIMBALL        PTSUNNY   66  26  21 S16       29.94S
SIDNEY         MOSUNNY   63  38  39 S14       29.96F
$$

NEZ057>060-069>072-079>082-181700-
SOUTHWEST NEBRASKA

CITY           SKY/WX    TMP DP  RH WIND       PRES   REMARKS
NORTH PLATTE   MOSUNNY   57  38  48 S20G30    30.04S
IMPERIAL       SUNNY     56  38  50 S15       30.01F
LEXINGTON      MOSUNNY   55  42  62 S17       30.09F
MCCOOK         SUNNY     58  41  53 S18       30.07F
OGALLALA       MOSUNNY   56  39  52 S12       29.98F
$$

NEZ005>010-023>029-035>040-094-181700-
NORTH CENTRAL NEBRASKA

CITY           SKY/WX    TMP DP  RH WIND       PRES   REMARKS
VALENTINE      MOSUNNY   61  37  41 S25G33    29.90F
AINSWORTH      SUNNY     59  38  46 S25G37    29.94S
BROKEN BOW     MOSUNNY   54  39  57 S24G33    30.05F
O`NEILL        SUNNY     59  36  41 S28       30.05F
ORD            SUNNY     56  39  53 S18G31    30.09F
THEDFORD       PTSUNNY   58  37  45 S20G28    29.98S
$$

NEZ041-046>049-061>064-073>077-083>087-181700-
SOUTH CENTRAL NEBRASKA

CITY           SKY/WX    TMP DP  RH WIND       PRES   REMARKS
GRAND ISLAND   SUNNY     57  38  48 S20       30.17S
AURORA         SUNNY     57  38  49 S18G24    30.18S
HASTINGS       SUNNY     56  37  49 S15G25    30.16F
HEBRON         SUNNY     57  35  44 S15       30.23S
HOLDREGE       SUNNY     55  41  58 S24       30.12F
KEARNEY *      SUNNY     55  43  62 S22G30    30.13F
YORK           SUNNY     55  36  47 S20       30.20S
$$

NEZ011>018-030>034-042>045-181700-
NORTHEAST NEBRASKA

CITY           SKY/WX    TMP DP  RH WIND       PRES   REMARKS
NORFOLK        SUNNY     57  34  41 S20G29    30.15F
ALBION         SUNNY     56  37  49 S21G29    30.15S
BLAIR          SUNNY     53  32  46 S15       30.25S
COLUMBUS *     SUNNY     55  36  47 S20G25    30.20F
FREMONT        SUNNY     56  34  42 SE20      30.24S HAZE
TEKAMAH        SUNNY     57  33  40 S18       30.26R HAZE
$$

NEZ050>053-065>068-078-088>093-181700-
SOUTHEAST NEBRASKA

CITY           SKY/WX    TMP DP  RH WIND       PRES   REMARKS
LINCOLN        MOSUNNY   58  34  40 S15       30.25F HAZE
OMAHA EPPLEY   SUNNY     53  33  46 S15       30.28S HAZE
BEATRICE       SUNNY     56  35  45 SE13      30.24F HAZE
FALLS CITY     SUNNY     54  36  50 SE13      30.29F
NEBRASKA CITY  SUNNY     54  35  48 S13       30.28S
PLATTSMOUTH    SUNNY     54  33  44 S16G23    30.28S
$$

NEZ044-045-051>053-067-181700-
OMAHA AREA

CITY           SKY/WX    TMP DP  RH WIND       PRES   REMARKS
OMAHA EPPLEY   SUNNY     53  33  46 S15       30.28S HAZE
BLAIR          SUNNY     53  32  46 S15       30.25S
FREMONT        SUNNY     56  34  42 SE20      30.24S HAZE
MILLARD        SUNNY     54  33  45 SE13      30.27R
PLATTSMOUTH    SUNNY     54  33  44 S16G23    30.28S
WAHOO          FAIR      55  32  40 SE18      30.25R HAZE
$$



USA.gov is the U.S. government's official web portal to all federal, state and local government web resources and services.